This is the latest recevied weather packets stored in our database for station/object N5ATR. If no packets are shown the sender has not sent any weather packets the latest 10 day(s).
| Time | Temp. | Humidity | Pressure | Rain* | Wind** | Luminosity | Snow |
|---|---|---|---|---|---|---|---|
| 1777832580 | 15.56° C | 44% | 1020.3 hPa | 0 mm | - | 548 W/m² | - |
| 1777832276 | 15.56° C | 43% | 1020.2 hPa | 0 mm | - | 546 W/m² | - |
| 1777831973 | 15.56° C | 38% | 1020.3 hPa | 0 mm | - | 537 W/m² | - |
| 1777831669 | 15.56° C | 41% | 1020.3 hPa | 0 mm | - | 640 W/m² | - |
| 1777831368 | 16.11° C | 36% | 1020.2 hPa | 0 mm | - | 542 W/m² | - |
| 1777831064 | 15.56° C | 33% | 1020.4 hPa | 0 mm | - | 605 W/m² | - |
| 1777830762 | 15.56° C | 38% | 1020.3 hPa | 0 mm | - | 539 W/m² | - |
| 1777830458 | 16.11° C | 37% | 1020.3 hPa | 0 mm | - | 581 W/m² | - |
| 1777830156 | 15.56° C | 38% | 1020.4 hPa | 0 mm | - | 628 W/m² | - |
| 1777829856 | 15.56° C | 32% | 1020.6 hPa | 0 mm | - | 648 W/m² | - |
| 1777829552 | 15.56° C | 43% | 1020.9 hPa | 0 mm | - | 585 W/m² | - |
| 1777829249 | 15.56° C | 43% | 1020.6 hPa | 0 mm | - | 601 W/m² | - |
| 1777828946 | 15° C | 40% | 1020.6 hPa | 0 mm | - | 600 W/m² | - |
| 1777828643 | 15.56° C | 43% | 1020.8 hPa | 0 mm | - | 564 W/m² | - |
| 1777828340 | 15° C | 42% | 1021 hPa | 0 mm | - | 558 W/m² | - |
| 1777828037 | 15.56° C | 39% | 1021 hPa | 0 mm | - | 554 W/m² | - |
| 1777827734 | 15.56° C | 43% | 1020.9 hPa | 0 mm | - | 623 W/m² | - |
| 1777827431 | 15.56° C | 41% | 1020.9 hPa | 0 mm | - | 538 W/m² | - |
| 1777827128 | 15° C | 43% | 1020.9 hPa | 0 mm | - | 639 W/m² | - |
| 1777826824 | 15.56° C | 37% | 1021.2 hPa | 0 mm | - | 593 W/m² | - |
| 1777826521 | 15° C | 43% | 1021 hPa | 0 mm | - | 646 W/m² | - |
| 1777826217 | 15° C | 43% | 1021 hPa | 0 mm | - | 675 W/m² | - |
| 1777825915 | 14.44° C | 46% | 1020.9 hPa | 0 mm | - | 652 W/m² | - |
| 1777825612 | 13.89° C | 44% | 1021 hPa | 0 mm | - | 597 W/m² | - |
| 1777825310 | 13.33° C | 44% | 1021.3 hPa | 0 mm | - | 575 W/m² | - |
* Rain latest hour (hover to see other rain measurements)
** Current wind speed in m/s (hover to see current wind gust speed)